Showing default

ASBM-1, 60422

Orbit data source: Space-Track

ASBM-1, 60422 is a Norwegian payload satellite in HEO that was launched on Mon, 12 Aug 2024 UTC via an FALCON 9 launch vehicle from the Air Force Western Test Range (AFWTR). Payload-class satellites include a variety of spacecraft equipped with specific instruments for various scientific and technological missions. These include communications satellites like Starlink; space stations such as the ISS; scientific satellites like the Hubble; Earth observation satellites from companies like Planet Labs, Umbra, and HawkEye 360; GPS; miniature CubeSats for education and research; and military/defense satellites.

Loading next visibility...
Identifier
60422, 2024-143A
Orbit
HEO
Country
Flag of NONO / NOR
Related business
Manufacturer
NGIS SSG
Mission
Operational Commercial Communications
Bus & Motor
GEOSTAR-3, BT-4?
Mass
3,695 kg wet, 2,035 kg dry
Launch date (UTC)
2024-08-12 (2 years ago)
Launch vehicle
FALCON 9
Launch site
Air Force Western Test Range (AFWTR)
Object type
Payload
Rocket body
Debris
Shape & HBR
Box + 2 Pan, 13.5 m
Radar Cross Section
35.796 m², Large (>1 m²)

Expand to show TLE details & history
Last TLE update: 3 days ago

TLE from 3 days ago
0 ASBM-1
1 60422U 24143A   26264.22422334 -.00000016  00000-0  00000-0 0  9998
2 60422  62.9327  41.6965 5644562 269.4461  29.3625  1.50427306 13065
Epoch: 2026-09-21T05:22Z
TLE epoch observation values (Epoch: 2026-09-21T05:22:52.896Z)
Latitude
0.00011°
Longitude
-39.18991°
Altitude
15,658.246 km
Speed
4.877 km/s
True Right ascension
02h 46m 33s
True Declination
0° 00' 00"
Sunlit
Object was in daylight at epoch
Visualization orbit readout
Latitude
Unknown
Longitude
Unknown
Altitude
Unknown
Speed
Unknown
Apparent Right ascension
Unknown
Apparent Declination
Unknown
Sunlit
N/A
Visualization observer readout
Local Sidereal Time
07:57:53
Azimuth
Unknown
Elevation
Unknown
Doppler factor
Unknown
Orbital elements
Apogee altitude
43,957.416 km
Perigee altitude
7,635.255 km
Semi-major axis
32,174.472 km
Eccentricity
0.56446
Inclination
62.9327°
RAAN
41.6965°
Arg. of periapsis
269.4461°
True anomaly
90.74705°
Mean anomaly
29.3625°
Eccentric anomaly
56.25441°
Mean motion
0.37608 °/min
Orbital period
957.25 mins
BSTAR
0
Loading maneuver chart data...
Computing Atmospheric mass density...
Loading historical data...
Loading historical data...
Loading historical data...
Loading historical data...
Loading historical data...
Loading historical data...
Loading historical data...
Other satellites on launch #143 in the year 2024 (2024-08-12 UTC)

Documentation

Showing up to 5 results
|